Time,TemperatureF,DewpointF,PressureIn,WindDirection,WindDirectionDegrees,WindSpeedMPH,WindSpeedGustMPH,Humidity,HourlyPrecipIn,Conditions,Clouds,dailyrainin,SoftwareType,DateUTC
2013-01-10 00:00:00,52.2,49.7,30.40,West,270,0.0,0.0,91,0.00,CLR,,0.00,WeatherDisplay:10.37,2013-01-10 05:00:00,
2013-01-10 00:01:00,52.2,49.7,30.41,West,270,0.0,0.0,91,0.00,CLR,,0.00,WeatherDisplay:10.37,2013-01-10 05:01:00,
2013-01-10 00:06:00,52.2,49.7,30.41,West,270,0.0,0.0,91,0.00,CLR,,0.00,WeatherDisplay:10.37,2013-01-10 05:06:00,
2013-01-10 00:11:00,52.2,49.7,30.41,West,270,0.0,0.0,91,0.00,CLR,,0.00,WeatherDisplay:10.37,2013-01-10 05:11:00,
2013-01-10 00:16:00,52.0,49.5,30.41,West,270,0.0,0.0,91,0.00,CLR,,0.00,WeatherDisplay:10.37,2013-01-10 05:16:00,
2013-01-10 00:21:00,51.8,49.3,30.41,West,270,0.0,0.0,91,0.00,CLR,,0.00,WeatherDisplay:10.37,2013-01-10 05:21:00,
2013-01-10 00:26:00,51.8,49.3,30.41,West,270,0.0,0.0,91,0.00,CLR,,0.00,WeatherDisplay:10.37,2013-01-10 05:26:00,
2013-01-10 00:32:00,51.6,49.1,30.41,West,270,0.0,0.0,91,0.00,CLR,,0.00,WeatherDisplay:10.37,2013-01-10 05:32:00,
2013-01-10 00:37:00,51.6,49.1,30.41,West,270,0.0,0.0,91,0.00,CLR,,0.00,WeatherDisplay:10.37,2013-01-10 05:37:00,
2013-01-10 00:42:00,51.6,49.4,30.42,West,270,0.0,0.0,92,0.00,CLR,,0.00,WeatherDisplay:10.37,2013-01-10 05:42:00,
2013-01-10 00:47:00,51.6,49.4,30.42,West,270,0.0,0.0,92,0.00,CLR,,0.00,WeatherDisplay:10.37,2013-01-10 05:47:00,
2013-01-10 00:52:00,51.6,49.4,30.42,West,270,0.0,0.0,92,0.00,CLR,,0.00,WeatherDisplay:10.37,2013-01-10 05:52:00,
2013-01-10 00:57:00,51.6,49.4,30.42,West,270,0.0,0.0,92,0.00,CLR,,0.00,WeatherDisplay:10.37,2013-01-10 05:57:00,
2013-01-10 01:02:00,51.8,49.8,30.42,West,270,0.0,0.0,93,0.00,CLR,,0.00,WeatherDisplay:10.37,2013-01-10 06:02:00,
2013-01-10 01:07:00,52.0,50.0,30.42,West,270,0.0,0.0,93,0.00,CLR,,0.00,WeatherDisplay:10.37,2013-01-10 06:07:00,
2013-01-10 01:12:00,52.0,50.0,30.42,West,270,0.0,0.0,93,0.00,CLR,,0.00,WeatherDisplay:10.37,2013-01-10 06:12:00,
2013-01-10 01:17:00,52.0,50.0,30.42,West,270,0.0,0.0,93,0.00,CLR,,0.00,WeatherDisplay:10.37,2013-01-10 06:17:00,
2013-01-10 01:23:00,52.0,50.0,30.42,West,270,0.0,0.0,93,0.00,CLR,,0.00,WeatherDisplay:10.37,2013-01-10 06:23:00,
2013-01-10 01:28:00,52.0,50.0,30.42,West,270,0.0,0.0,93,0.00,CLR,,0.00,WeatherDisplay:10.37,2013-01-10 06:28:00,
2013-01-10 01:33:00,52.0,50.0,30.42,West,270,0.0,0.0,93,0.00,CLR,,0.00,WeatherDisplay:10.37,2013-01-10 06:33:00,
2013-01-10 01:38:00,52.0,50.0,30.42,West,270,0.0,0.0,93,0.00,CLR,,0.00,WeatherDisplay:10.37,2013-01-10 06:38:00,
2013-01-10 01:43:00,52.0,50.0,30.42,West,270,0.0,0.0,93,0.00,CLR,,0.00,WeatherDisplay:10.37,2013-01-10 06:43:00,
2013-01-10 01:48:00,52.0,50.0,30.42,West,270,2.3,0.0,93,0.00,CLR,,0.00,WeatherDisplay:10.37,2013-01-10 06:48:00,
2013-01-10 01:53:00,52.0,50.0,30.43,West,270,2.3,2.3,93,0.00,CLR,,0.00,WeatherDisplay:10.37,2013-01-10 06:53:00,
2013-01-10 01:58:00,52.0,50.0,30.43,West,270,0.0,0.0,93,0.00,CLR,,0.00,WeatherDisplay:10.37,2013-01-10 06:58:00,
2013-01-10 02:03:00,51.8,49.8,30.43,West,270,0.0,0.0,93,0.00,CLR,,0.00,WeatherDisplay:10.37,2013-01-10 07:03:00,
2013-01-10 02:08:00,51.8,49.8,30.43,West,270,0.0,0.0,93,0.00,CLR,,0.00,WeatherDisplay:10.37,2013-01-10 07:08:00,
2013-01-10 02:13:00,51.8,49.8,30.43,West,270,0.0,0.0,93,0.00,CLR,,0.00,WeatherDisplay:10.37,2013-01-10 07:13:00,
2013-01-10 02:19:00,51.6,49.6,30.43,West,270,0.0,0.0,93,0.00,CLR,,0.00,WeatherDisplay:10.37,2013-01-10 07:19:00,
2013-01-10 02:24:00,51.6,49.6,30.43,West,270,0.0,0.0,93,0.00,CLR,,0.00,WeatherDisplay:10.37,2013-01-10 07:24:00,
2013-01-10 02:29:00,51.4,49.4,30.43,West,270,0.0,0.0,93,0.00,CLR,,0.00,WeatherDisplay:10.37,2013-01-10 07:29:00,
2013-01-10 02:34:00,51.4,49.4,30.43,West,270,3.7,3.7,93,0.00,CLR,,0.00,WeatherDisplay:10.37,2013-01-10 07:34:00,
2013-01-10 02:39:00,52.0,50.0,30.43,West,270,0.0,0.0,93,0.00,CLR,,0.00,WeatherDisplay:10.37,2013-01-10 07:39:00,
2013-01-10 02:44:00,52.0,50.3,30.43,West,270,0.0,0.0,94,0.00,CLR,,0.00,WeatherDisplay:10.37,2013-01-10 07:44:00,
2013-01-10 02:49:00,51.8,50.1,30.43,West,270,0.0,0.0,94,0.00,CLR,,0.00,WeatherDisplay:10.37,2013-01-10 07:49:00,
2013-01-10 02:54:00,51.6,49.9,30.43,West,270,0.0,0.0,94,0.00,CLR,,0.00,WeatherDisplay:10.37,2013-01-10 07:54:00,
2013-01-10 02:59:00,51.4,49.7,30.43,West,270,0.0,0.0,94,0.00,CLR,,0.00,WeatherDisplay:10.37,2013-01-10 07:59:00,
2013-01-10 03:04:00,51.4,49.7,30.42,West,270,0.0,0.0,94,0.00,CLR,,0.00,WeatherDisplay:10.37,2013-01-10 08:04:00,
2013-01-10 03:09:00,51.3,49.6,30.42,West,270,0.0,0.0,94,0.00,CLR,,0.00,WeatherDisplay:10.37,2013-01-10 08:09:00,
2013-01-10 03:14:00,51.3,49.6,30.42,West,270,0.0,0.0,94,0.00,CLR,,0.00,WeatherDisplay:10.37,2013-01-10 08:14:00,
2013-01-10 03:19:00,51.1,49.4,30.42,West,270,0.0,0.0,94,0.00,CLR,,0.00,WeatherDisplay:10.37,2013-01-10 08:19:00,
2013-01-10 03:24:00,51.1,49.4,30.42,West,270,0.0,0.0,94,0.00,CLR,,0.00,WeatherDisplay:10.37,2013-01-10 08:24:00,
2013-01-10 03:29:00,50.9,49.2,30.42,West,270,0.0,0.0,94,0.00,CLR,,0.00,WeatherDisplay:10.37,2013-01-10 08:29:00,
2013-01-10 03:34:00,50.9,49.2,30.42,West,270,0.0,0.0,94,0.00,CLR,,0.00,WeatherDisplay:10.37,2013-01-10 08:34:00,
2013-01-10 03:39:00,50.7,49.0,30.42,West,270,0.0,0.0,94,0.00,CLR,,0.00,WeatherDisplay:10.37,2013-01-10 08:39:00,
2013-01-10 03:44:00,50.7,49.0,30.42,West,270,0.0,0.0,94,0.00,CLR,,0.00,WeatherDisplay:10.37,2013-01-10 08:44:00,
2013-01-10 03:49:00,50.5,48.8,30.42,NE,45,0.0,0.0,94,0.00,CLR,,0.00,WeatherDisplay:10.37,2013-01-10 08:49:00,
2013-01-10 03:54:00,51.1,49.4,30.42,ENE,59,1.0,3.0,94,0.00,CLR,,0.00,WeatherDisplay:10.37,2013-01-10 08:54:00,
2013-01-10 03:59:00,53.6,51.9,30.42,North,10,2.0,3.0,94,0.00,CLR,,0.00,WeatherDisplay:10.37,2013-01-10 08:59:00,
2013-01-10 04:04:00,53.0,51.6,30.41,NNE,12,1.0,3.0,95,0.00,CLR,,0.00,WeatherDisplay:10.37,2013-01-10 09:04:00,
2013-01-10 04:09:00,53.5,52.1,30.41,NNE,23,2.0,3.0,95,0.00,CLR,,0.00,WeatherDisplay:10.37,2013-01-10 09:09:00,
2013-01-10 04:14:00,54.7,53.3,30.41,NNE,22,2.0,4.0,95,0.00,CLR,,0.00,WeatherDisplay:10.37,2013-01-10 09:14:00,
2013-01-10 04:19:00,54.9,53.5,30.41,NNE,22,2.0,3.0,95,0.00,CLR,,0.00,WeatherDisplay:10.37,2013-01-10 09:19:00,
2013-01-10 04:24:00,54.7,53.3,30.41,NNE,22,2.0,4.0,95,0.00,CLR,,0.00,WeatherDisplay:10.37,2013-01-10 09:24:00,
2013-01-10 04:29:00,54.3,52.9,30.41,NNE,22,0.0,2.0,95,0.00,CLR,,0.00,WeatherDisplay:10.37,2013-01-10 09:29:00,
2013-01-10 04:34:00,54.0,52.6,30.41,NNE,22,1.0,2.0,95,0.00,FEW,,0.00,WeatherDisplay:10.37,2013-01-10 09:34:00,
2013-01-10 04:39:00,54.1,52.7,30.41,NNE,22,2.3,2.3,95,0.00,FEW,,0.00,WeatherDisplay:10.37,2013-01-10 09:39:00,
2013-01-10 04:44:00,54.3,52.9,30.41,NNE,22,2.0,3.0,95,0.00,FEW,,0.00,WeatherDisplay:10.37,2013-01-10 09:44:00,
2013-01-10 04:49:00,54.9,53.5,30.42,NNE,22,2.0,2.0,95,0.00,FEW,,0.00,WeatherDisplay:10.37,2013-01-10 09:49:00,
2013-01-10 04:54:00,54.9,53.5,30.42,NNE,12,0.0,3.0,95,0.00,FEW,,0.00,WeatherDisplay:10.37,2013-01-10 09:54:00,
2013-01-10 04:59:00,53.9,52.5,30.42,North,360,0.0,0.0,95,0.00,FEW,,0.00,WeatherDisplay:10.37,2013-01-10 09:59:00,
2013-01-10 05:04:00,53.2,51.8,30.42,North,360,1.0,2.0,95,0.00,FEW,,0.00,WeatherDisplay:10.37,2013-01-10 10:04:00,
2013-01-10 05:09:00,52.9,51.5,30.42,North,360,0.0,0.0,95,0.00,FEW,,0.00,WeatherDisplay:10.37,2013-01-10 10:09:00,
2013-01-10 05:14:00,52.7,51.3,30.43,North,360,0.0,0.0,95,0.00,FEW,,0.00,WeatherDisplay:10.37,2013-01-10 10:14:00,
2013-01-10 05:19:00,52.5,51.1,30.43,North,360,0.0,0.0,95,0.00,CLR,,0.00,WeatherDisplay:10.37,2013-01-10 10:19:00,
2013-01-10 05:24:00,52.2,50.8,30.43,North,360,0.0,0.0,95,0.00,CLR,,0.00,WeatherDisplay:10.37,2013-01-10 10:24:00,
2013-01-10 05:29:00,52.2,50.8,30.44,North,360,0.0,0.0,95,0.00,CLR,,0.00,WeatherDisplay:10.37,2013-01-10 10:29:00,
2013-01-10 05:34:00,52.2,50.8,30.44,North,360,0.0,0.0,95,0.00,CLR,,0.00,WeatherDisplay:10.37,2013-01-10 10:34:00,
2013-01-10 05:39:00,52.0,50.6,30.43,North,360,0.0,0.0,95,0.00,CLR,,0.00,WeatherDisplay:10.37,2013-01-10 10:39:00,
2013-01-10 05:44:00,51.8,50.4,30.43,North,360,0.0,0.0,95,0.00,CLR,,0.00,WeatherDisplay:10.37,2013-01-10 10:44:00,
2013-01-10 05:49:00,51.6,50.2,30.44,North,360,0.0,0.0,95,0.00,CLR,,0.00,WeatherDisplay:10.37,2013-01-10 10:49:00,
2013-01-10 05:54:00,51.4,50.0,30.44,North,360,0.0,0.0,95,0.00,CLR,,0.00,WeatherDisplay:10.37,2013-01-10 10:54:00,
2013-01-10 05:59:00,51.3,49.9,30.44,North,360,0.0,0.0,95,0.00,CLR,,0.00,WeatherDisplay:10.37,2013-01-10 10:59:00,
2013-01-10 06:04:00,51.1,49.7,30.45,North,360,0.0,0.0,95,0.00,CLR,,0.00,WeatherDisplay:10.37,2013-01-10 11:04:00,
2013-01-10 06:09:00,50.9,49.5,30.45,North,360,0.0,0.0,95,0.00,CLR,,0.00,WeatherDisplay:10.37,2013-01-10 11:09:00,
2013-01-10 06:14:00,50.9,49.5,30.45,North,360,0.0,0.0,95,0.00,CLR,,0.00,WeatherDisplay:10.37,2013-01-10 11:14:00,
2013-01-10 06:19:00,50.8,49.4,30.45,North,360,0.0,0.0,95,0.00,CLR,,0.00,WeatherDisplay:10.37,2013-01-10 11:19:00,
2013-01-10 06:24:00,50.7,49.3,30.45,North,360,0.0,0.0,95,0.00,CLR,,0.00,WeatherDisplay:10.37,2013-01-10 11:24:00,
2013-01-10 06:29:00,50.5,49.1,30.46,North,360,0.0,0.0,95,0.00,CLR,,0.00,WeatherDisplay:10.37,2013-01-10 11:29:00,
2013-01-10 06:34:00,50.4,49.1,30.46,North,360,0.0,0.0,95,0.00,CLR,,0.00,WeatherDisplay:10.37,2013-01-10 11:34:00,
2013-01-10 06:39:00,50.4,49.0,30.46,North,360,0.0,0.0,95,0.00,CLR,,0.00,WeatherDisplay:10.37,2013-01-10 11:39:00,
2013-01-10 06:44:00,50.2,48.8,30.46,North,360,0.0,0.0,95,0.00,CLR,,0.00,WeatherDisplay:10.37,2013-01-10 11:44:00,
2013-01-10 06:49:00,50.0,48.6,30.46,North,360,0.0,0.0,95,0.00,CLR,,0.00,WeatherDisplay:10.37,2013-01-10 11:49:00,
2013-01-10 06:54:00,49.8,48.4,30.47,ENE,68,2.5,2.9,95,0.00,CLR,,0.00,WeatherDisplay:10.37,2013-01-10 11:54:00,
2013-01-10 06:59:00,49.8,48.4,30.47,ENE,57,2.0,3.0,95,0.00,CLR,,0.00,WeatherDisplay:10.37,2013-01-10 11:59:00,
2013-01-10 07:04:00,49.8,48.4,30.47,ENE,68,0.0,1.0,95,0.00,CLR,,0.00,WeatherDisplay:10.37,2013-01-10 12:04:00,
2013-01-10 07:09:00,49.8,48.4,30.47,ENE,68,0.0,0.0,95,0.00,CLR,,0.00,WeatherDisplay:10.37,2013-01-10 12:09:00,
2013-01-10 07:14:00,49.6,48.2,30.47,ENE,68,0.0,0.0,95,0.00,CLR,,0.00,WeatherDisplay:10.37,2013-01-10 12:14:00,
2013-01-10 07:19:00,49.6,48.2,30.47,ENE,68,0.0,0.0,95,0.00,SCT,,0.00,WeatherDisplay:10.37,2013-01-10 12:19:00,
2013-01-10 07:24:00,49.6,48.2,30.47,ENE,68,1.0,2.0,95,0.00,SCT,,0.00,WeatherDisplay:10.37,2013-01-10 12:24:00,
2013-01-10 07:29:00,49.8,48.4,30.48,ENE,68,0.0,2.0,95,0.00,SCT,,0.00,WeatherDisplay:10.37,2013-01-10 12:29:00,
2013-01-10 07:34:00,50.4,49.0,30.48,ENE,59,0.0,2.0,95,0.00,SCT,,0.00,WeatherDisplay:10.37,2013-01-10 12:34:00,
2013-01-10 07:39:00,51.1,49.7,30.48,NE,45,2.5,2.5,95,0.00,SCT,,0.00,WeatherDisplay:10.37,2013-01-10 12:39:00,
2013-01-10 07:44:00,51.9,50.5,30.48,NNE,32,2.0,3.0,95,0.00,SCT,,0.00,WeatherDisplay:10.37,2013-01-10 12:44:00,
2013-01-10 07:49:00,52.7,51.3,30.49,North,353,1.0,4.0,95,0.00,SCT,,0.00,WeatherDisplay:10.37,2013-01-10 12:49:00,
2013-01-10 07:54:00,52.7,51.3,30.49,North,350,2.0,4.0,95,0.00,SCT,,0.00,WeatherDisplay:10.37,2013-01-10 12:54:00,
2013-01-10 07:59:00,53.1,51.7,30.49,NE,49,5.0,8.0,95,0.00,SCT,,0.00,WeatherDisplay:10.37,2013-01-10 12:59:00,
2013-01-10 08:04:00,53.2,51.8,30.49,NE,45,2.0,4.0,95,0.00,SCT,,0.00,WeatherDisplay:10.37,2013-01-10 13:04:00,
2013-01-10 08:09:00,53.2,51.8,30.49,ESE,112,7.9,7.9,95,0.00,SCT,,0.00,WeatherDisplay:10.37,2013-01-10 13:09:00,
2013-01-10 08:14:00,53.2,51.8,30.51,NE,56,6.0,8.0,95,0.00,SCT,,0.00,WeatherDisplay:10.37,2013-01-10 13:14:00,
2013-01-10 08:19:00,53.6,51.9,30.51,ENE,64,10.0,17.0,94,0.00,SCT,,0.00,WeatherDisplay:10.37,2013-01-10 13:19:00,
2013-01-10 08:24:00,54.1,51.8,30.51,NE,52,6.0,14.0,92,0.00,SCT,,0.00,WeatherDisplay:10.37,2013-01-10 13:24:00,
2013-01-10 08:29:00,54.3,51.7,30.51,NE,53,6.0,12.0,91,0.00,SCT,,0.00,WeatherDisplay:10.37,2013-01-10 13:29:00,
2013-01-10 08:34:00,54.8,51.6,30.51,ENE,62,7.0,15.0,89,0.00,CLR,,0.00,WeatherDisplay:10.37,2013-01-10 13:34:00,
2013-01-10 08:39:00,54.9,51.4,30.51,ENE,77,6.0,13.0,88,0.00,CLR,,0.00,WeatherDisplay:10.37,2013-01-10 13:39:00,
2013-01-10 08:44:00,55.2,51.4,30.51,ENE,74,7.0,15.0,87,0.00,CLR,,0.00,WeatherDisplay:10.37,2013-01-10 13:44:00,
2013-01-10 08:49:00,55.4,51.3,30.52,East,79,9.0,12.0,86,0.00,CLR,,0.00,WeatherDisplay:10.37,2013-01-10 13:49:00,
2013-01-10 08:54:00,56.3,51.2,30.52,East,80,9.0,13.0,83,0.00,CLR,,0.00,WeatherDisplay:10.37,2013-01-10 13:54:00,
2013-01-10 08:59:00,56.7,51.3,30.52,ENE,67,9.0,18.0,82,0.00,CLR,,0.00,WeatherDisplay:10.37,2013-01-10 13:59:00,
2013-01-10 09:04:00,57.0,51.2,30.52,ENE,68,9.0,18.0,81,0.00,CLR,,0.00,WeatherDisplay:10.37,2013-01-10 14:04:00,
2013-01-10 09:09:00,57.4,51.6,30.52,ENE,67,10.0,12.0,81,0.00,CLR,,0.00,WeatherDisplay:10.37,2013-01-10 14:09:00,
2013-01-10 09:14:00,57.7,51.2,30.52,ENE,63,12.0,16.0,79,0.00,CLR,,0.00,WeatherDisplay:10.37,2013-01-10 14:14:00,
2013-01-10 09:19:00,57.7,50.6,30.52,ENE,72,13.0,19.0,77,0.00,CLR,,0.00,WeatherDisplay:10.37,2013-01-10 14:19:00,
2013-01-10 09:24:00,58.1,49.9,30.52,NE,45,11.5,11.5,74,0.00,CLR,,0.00,WeatherDisplay:10.37,2013-01-10 14:24:00,
2013-01-10 09:29:00,58.5,48.7,30.52,East,79,15.0,21.0,70,0.00,CLR,,0.00,WeatherDisplay:10.37,2013-01-10 14:29:00,
2013-01-10 09:34:00,58.1,48.0,30.52,East,91,8.0,20.0,69,0.00,CLR,,0.00,WeatherDisplay:10.37,2013-01-10 14:34:00,
2013-01-10 09:39:00,58.7,47.7,30.52,ENE,76,10.0,18.0,67,0.00,CLR,,0.00,WeatherDisplay:10.37,2013-01-10 14:39:00,
2013-01-10 09:44:00,58.5,47.2,30.52,ENE,69,8.0,19.0,66,0.00,CLR,,0.00,WeatherDisplay:10.37,2013-01-10 14:44:00,
2013-01-10 09:49:00,58.6,46.9,30.53,ENE,71,7.0,14.0,65,0.00,CLR,,0.00,WeatherDisplay:10.37,2013-01-10 14:49:00,
2013-01-10 09:54:00,58.8,46.2,30.53,ENE,61,12.0,16.0,63,0.00,CLR,,0.00,WeatherDisplay:10.37,2013-01-10 14:54:00,
2013-01-10 09:59:00,58.9,46.7,30.53,ENE,72,9.0,16.0,64,0.00,CLR,,0.00,WeatherDisplay:10.37,2013-01-10 14:59:00,
2013-01-10 10:04:00,59.0,46.4,30.52,ENE,73,9.0,19.0,63,0.00,CLR,,0.00,WeatherDisplay:10.37,2013-01-10 15:04:00,
2013-01-10 10:09:00,59.0,46.0,30.52,ENE,57,13.0,16.0,62,0.00,CLR,,0.00,WeatherDisplay:10.37,2013-01-10 15:09:00,
2013-01-10 10:14:00,59.1,46.1,30.52,NE,56,9.0,14.0,62,0.00,CLR,,0.00,WeatherDisplay:10.37,2013-01-10 15:14:00,
2013-01-10 10:19:00,59.2,45.8,30.52,ENE,68,13.8,13.8,61,0.00,CLR,,0.00,WeatherDisplay:10.37,2013-01-10 15:19:00,
2013-01-10 10:24:00,59.2,46.2,30.52,NE,45,10.4,10.4,62,0.00,CLR,,0.00,WeatherDisplay:10.37,2013-01-10 15:24:00,
2013-01-10 10:29:00,59.7,45.3,30.52,ENE,63,9.0,14.0,59,0.00,CLR,,0.00,WeatherDisplay:10.37,2013-01-10 15:29:00,
2013-01-10 10:34:00,60.1,45.2,30.52,ENE,57,12.0,16.0,58,0.00,CLR,,0.00,WeatherDisplay:10.37,2013-01-10 15:34:00,
2013-01-10 10:39:00,59.7,43.5,30.52,East,80,14.0,21.0,55,0.00,CLR,,0.00,WeatherDisplay:10.37,2013-01-10 15:39:00,
2013-01-10 10:45:00,60.4,43.2,30.52,NE,45,10.4,10.4,53,0.00,CLR,,0.00,WeatherDisplay:10.37,2013-01-10 15:45:00,
2013-01-10 10:50:00,60.6,43.9,30.51,East,90,12.5,12.5,54,0.00,CLR,,0.00,WeatherDisplay:10.37,2013-01-10 15:50:00,
2013-01-10 10:55:00,60.1,43.9,30.51,East,90,11.5,11.5,55,0.00,CLR,,0.00,WeatherDisplay:10.37,2013-01-10 15:55:00,
2013-01-10 11:00:00,60.3,43.1,30.51,West,270,21.1,21.1,53,0.00,CLR,,0.00,WeatherDisplay:10.37,2013-01-10 16:00:00,
2013-01-10 11:05:00,60.3,42.6,30.51,ENE,68,23.0,23.0,52,0.00,CLR,,0.00,WeatherDisplay:10.37,2013-01-10 16:05:00,
2013-01-10 11:10:00,60.3,42.1,30.51,East,90,16.1,16.1,51,0.00,CLR,,0.00,WeatherDisplay:10.37,2013-01-10 16:10:00,
2013-01-10 11:15:00,59.9,42.2,30.51,East,90,16.1,16.1,52,0.00,CLR,,0.00,WeatherDisplay:10.37,2013-01-10 16:15:00,
2013-01-10 11:20:00,59.5,42.3,30.51,NE,45,19.4,19.4,53,0.00,CLR,,0.00,WeatherDisplay:10.37,2013-01-10 16:20:00,
2013-01-10 11:25:00,59.4,41.8,30.49,East,90,16.4,16.4,52,0.00,CLR,,0.00,WeatherDisplay:10.37,2013-01-10 16:25:00,
2013-01-10 11:30:00,59.2,41.6,30.49,East,90,20.7,20.7,52,0.00,CLR,,0.00,WeatherDisplay:10.37,2013-01-10 16:30:00,
2013-01-10 11:36:00,58.8,40.2,30.49,NE,45,24.2,24.2,50,0.00,CLR,,0.00,WeatherDisplay:10.37,2013-01-10 16:36:00,
2013-01-10 11:41:00,58.6,40.0,30.49,ESE,112,16.1,16.1,50,0.00,CLR,,0.00,WeatherDisplay:10.37,2013-01-10 16:41:00,
2013-01-10 11:46:00,59.0,40.9,30.49,East,90,16.4,16.4,51,0.00,CLR,,0.00,WeatherDisplay:10.37,2013-01-10 16:46:00,
2013-01-10 11:51:00,59.0,39.3,30.48,NE,45,20.7,20.7,48,0.00,CLR,,0.00,WeatherDisplay:10.37,2013-01-10 16:51:00,
2013-01-10 11:56:00,59.4,39.1,30.48,ENE,68,15.0,15.0,47,0.00,CLR,,0.00,WeatherDisplay:10.37,2013-01-10 16:56:00,
2013-01-10 12:01:00,59.5,38.7,30.48,ENE,68,13.8,13.8,46,0.00,CLR,,0.00,WeatherDisplay:10.37,2013-01-10 17:01:00,
2013-01-10 12:06:00,59.7,38.9,30.48,NE,45,16.4,16.4,46,0.00,CLR,,0.00,WeatherDisplay:10.37,2013-01-10 17:06:00,
2013-01-10 12:11:00,59.9,39.1,30.48,ENE,68,16.1,16.1,46,0.00,CLR,,0.00,WeatherDisplay:10.37,2013-01-10 17:11:00,
2013-01-10 12:16:00,59.2,38.4,30.48,ENE,68,24.2,24.2,46,0.00,CLR,,0.00,WeatherDisplay:10.37,2013-01-10 17:16:00,
2013-01-10 12:21:00,59.2,38.4,30.48,ENE,68,15.0,15.0,46,0.00,CLR,,0.00,WeatherDisplay:10.37,2013-01-10 17:21:00,
2013-01-10 12:27:00,59.2,37.9,30.47,East,90,13.8,13.8,45,0.00,CLR,,0.00,WeatherDisplay:10.37,2013-01-10 17:27:00,
2013-01-10 12:32:00,59.2,37.9,30.47,East,90,20.7,20.7,45,0.00,CLR,,0.00,WeatherDisplay:10.37,2013-01-10 17:32:00,
2013-01-10 12:37:00,60.4,40.1,30.47,North,360,18.7,18.7,47,0.00,CLR,,0.00,WeatherDisplay:10.37,2013-01-10 17:37:00,
2013-01-10 12:42:00,59.7,37.2,30.47,ESE,112,23.3,23.3,43,0.00,CLR,,0.00,WeatherDisplay:10.37,2013-01-10 17:42:00,
2013-01-10 12:47:00,59.7,38.3,30.47,NE,45,16.1,16.1,45,0.00,CLR,,0.00,WeatherDisplay:10.37,2013-01-10 17:47:00,
2013-01-10 12:52:00,59.5,37.6,30.47,ESE,112,18.4,18.4,44,0.00,CLR,,0.00,WeatherDisplay:10.37,2013-01-10 17:52:00,
2013-01-10 12:57:00,59.9,37.9,30.47,East,90,13.3,13.3,44,0.00,CLR,,0.00,WeatherDisplay:10.37,2013-01-10 17:57:00,
2013-01-10 13:02:00,59.7,36.6,30.47,ENE,68,16.1,16.1,42,0.00,CLR,,0.00,WeatherDisplay:10.37,2013-01-10 18:02:00,
2013-01-10 13:07:00,59.9,36.7,30.47,East,90,19.6,19.6,42,0.00,CLR,,0.00,WeatherDisplay:10.37,2013-01-10 18:07:00,
2013-01-10 13:12:00,60.1,37.5,30.47,NE,45,13.8,13.8,43,0.00,CLR,,0.00,WeatherDisplay:10.37,2013-01-10 18:12:00,
2013-01-10 13:18:00,60.4,37.8,30.46,NE,45,11.5,11.5,43,0.00,CLR,,0.00,WeatherDisplay:10.37,2013-01-10 18:18:00,
2013-01-10 13:23:00,59.9,37.3,30.46,NE,45,18.4,18.4,43,0.00,CLR,,0.00,WeatherDisplay:10.37,2013-01-10 18:23:00,
2013-01-10 13:28:00,60.4,37.2,30.47,ESE,112,19.6,19.6,42,0.00,CLR,,0.00,WeatherDisplay:10.37,2013-01-10 18:28:00,
2013-01-10 13:33:00,60.3,37.1,30.47,ENE,68,14.0,14.0,42,0.00,CLR,,0.00,WeatherDisplay:10.37,2013-01-10 18:33:00,
2013-01-10 13:38:00,60.4,35.9,30.47,NNE,22,11.5,11.5,40,0.00,CLR,,0.00,WeatherDisplay:10.37,2013-01-10 18:38:00,
2013-01-10 13:43:00,60.8,35.7,30.47,ENE,68,16.4,16.4,39,0.00,CLR,,0.00,WeatherDisplay:10.37,2013-01-10 18:43:00,
2013-01-10 13:48:00,60.4,36.6,30.47,ENE,68,17.3,17.3,41,0.00,CLR,,0.00,WeatherDisplay:10.37,2013-01-10 18:48:00,
2013-01-10 13:53:00,60.6,36.8,30.47,East,90,9.4,11.7,41,0.00,CLR,,0.00,WeatherDisplay:10.37,2013-01-10 18:53:00,
2013-01-10 13:58:00,60.4,37.2,30.47,NE,45,17.9,17.9,42,0.00,CLR,,0.00,WeatherDisplay:10.37,2013-01-10 18:58:00,
2013-01-10 14:03:00,60.3,37.7,30.46,SSW,202,11.5,11.5,43,0.00,CLR,,0.00,WeatherDisplay:10.37,2013-01-10 19:03:00,
2013-01-10 14:09:00,59.9,36.7,30.46,ENE,68,11.5,11.5,42,0.00,CLR,,0.00,WeatherDisplay:10.37,2013-01-10 19:09:00,
2013-01-10 14:14:00,59.9,36.1,30.47,ENE,68,19.4,19.4,41,0.00,CLR,,0.00,WeatherDisplay:10.37,2013-01-10 19:14:00,
2013-01-10 14:19:00,59.7,37.2,30.47,East,90,11.5,11.5,43,0.00,CLR,,0.00,WeatherDisplay:10.37,2013-01-10 19:19:00,
2013-01-10 14:24:00,59.7,37.2,30.47,NNE,22,10.2,10.2,43,0.00,CLR,,0.00,WeatherDisplay:10.37,2013-01-10 19:24:00,
2013-01-10 14:29:00,59.4,37.5,30.48,NNE,22,11.5,11.5,44,0.00,CLR,,0.00,WeatherDisplay:10.37,2013-01-10 19:29:00,
2013-01-10 14:34:00,59.2,38.4,30.48,ESE,112,13.3,13.3,46,0.00,CLR,,0.00,WeatherDisplay:10.37,2013-01-10 19:34:00,
2013-01-10 14:39:00,59.0,38.8,30.47,ESE,112,20.7,20.7,47,0.00,CLR,,0.00,WeatherDisplay:10.37,2013-01-10 19:39:00,
2013-01-10 14:44:00,59.0,39.3,30.47,ENE,68,12.7,12.7,48,0.00,CLR,,0.00,WeatherDisplay:10.37,2013-01-10 19:44:00,
2013-01-10 14:49:00,59.0,39.3,30.47,ENE,68,7.1,7.1,48,0.00,CLR,,0.00,WeatherDisplay:10.37,2013-01-10 19:49:00,
2013-01-10 14:54:00,58.3,38.7,30.47,NNW,338,12.7,12.7,48,0.00,CLR,,0.00,WeatherDisplay:10.37,2013-01-10 19:54:00,
2013-01-10 14:59:00,58.6,37.9,30.47,ENE,67,12.0,17.0,46,0.00,CLR,,0.00,WeatherDisplay:10.37,2013-01-10 19:59:00,
2013-01-10 15:04:00,58.1,36.9,30.48,ENE,75,13.0,19.0,45,0.00,CLR,,0.00,WeatherDisplay:10.37,2013-01-10 20:04:00,
2013-01-10 15:09:00,58.1,36.8,30.48,ENE,76,10.0,14.0,45,0.00,CLR,,0.00,WeatherDisplay:10.37,2013-01-10 20:09:00,
2013-01-10 15:14:00,57.6,36.4,30.48,ENE,61,10.0,18.0,45,0.00,CLR,,0.00,WeatherDisplay:10.37,2013-01-10 20:14:00,
2013-01-10 15:19:00,57.7,36.5,30.48,ENE,68,8.0,15.0,45,0.00,CLR,,0.00,WeatherDisplay:10.37,2013-01-10 20:19:00,
2013-01-10 15:24:00,57.7,36.5,30.48,ENE,66,10.0,17.0,45,0.00,CLR,,0.00,WeatherDisplay:10.37,2013-01-10 20:24:00,
2013-01-10 15:29:00,57.6,36.4,30.48,East,82,9.0,17.0,45,0.00,CLR,,0.00,WeatherDisplay:10.37,2013-01-10 20:29:00,
2013-01-10 15:34:00,57.6,37.5,30.48,ENE,74,8.0,16.0,47,0.00,CLR,,0.00,WeatherDisplay:10.37,2013-01-10 20:34:00,
2013-01-10 15:39:00,57.6,36.4,30.48,ENE,73,10.0,14.0,45,0.00,CLR,,0.00,WeatherDisplay:10.37,2013-01-10 20:39:00,
2013-01-10 15:44:00,57.6,34.7,30.48,ENE,72,13.0,16.0,42,0.00,CLR,,0.00,WeatherDisplay:10.37,2013-01-10 20:44:00,
2013-01-10 15:49:00,57.4,35.6,30.49,East,90,16.1,16.1,44,0.00,CLR,,0.00,WeatherDisplay:10.37,2013-01-10 20:49:00,
2013-01-10 15:54:00,57.4,36.8,30.49,East,85,7.0,14.0,46,0.00,CLR,,0.00,WeatherDisplay:10.37,2013-01-10 20:54:00,
2013-01-10 15:59:00,57.2,38.2,30.49,East,84,12.0,15.0,49,0.00,CLR,,0.00,WeatherDisplay:10.37,2013-01-10 20:59:00,
2013-01-10 16:04:00,57.0,39.5,30.48,East,90,10.4,10.4,52,0.00,CLR,,0.00,WeatherDisplay:10.37,2013-01-10 21:04:00,
2013-01-10 16:09:00,57.0,40.0,30.48,NE,55,7.0,9.0,53,0.00,CLR,,0.00,WeatherDisplay:10.37,2013-01-10 21:09:00,
2013-01-10 16:14:00,56.7,40.7,30.49,ENE,76,9.0,14.0,55,0.00,CLR,,0.00,WeatherDisplay:10.37,2013-01-10 21:14:00,
2013-01-10 16:19:00,56.3,39.9,30.49,East,90,15.6,15.6,54,0.00,CLR,,0.00,WeatherDisplay:10.37,2013-01-10 21:19:00,
2013-01-10 16:24:00,56.3,39.9,30.49,ENE,75,7.0,16.0,54,0.00,CLR,,0.00,WeatherDisplay:10.37,2013-01-10 21:24:00,
2013-01-10 16:30:00,55.8,38.9,30.49,East,90,13.8,13.8,53,0.00,CLR,,0.00,WeatherDisplay:10.37,2013-01-10 21:30:00,
2013-01-10 16:35:00,55.4,39.5,30.49,ENE,68,11.5,11.5,55,0.00,CLR,,0.00,WeatherDisplay:10.37,2013-01-10 21:35:00,
2013-01-10 16:40:00,54.9,40.4,30.49,ESE,112,16.1,16.1,58,0.00,CLR,,0.00,WeatherDisplay:10.37,2013-01-10 21:40:00,
2013-01-10 16:45:00,54.3,40.7,30.49,East,90,13.8,13.8,60,0.00,CLR,,0.00,WeatherDisplay:10.37,2013-01-10 21:45:00,
2013-01-10 16:50:00,54.3,40.7,30.49,East,90,12.7,12.7,60,0.00,CLR,,0.00,WeatherDisplay:10.37,2013-01-10 21:50:00,
2013-01-10 16:55:00,53.8,40.2,30.49,NE,45,13.8,13.8,60,0.00,CLR,,0.00,WeatherDisplay:10.37,2013-01-10 21:55:00,
2013-01-10 17:00:00,53.4,39.9,30.49,ENE,68,10.4,10.4,60,0.00,CLR,,0.00,WeatherDisplay:10.37,2013-01-10 22:00:00,
2013-01-10 17:05:00,53.2,39.7,30.49,East,90,15.0,15.0,60,0.00,CLR,,0.00,WeatherDisplay:10.37,2013-01-10 22:05:00,
2013-01-10 17:11:00,52.9,39.4,30.49,ENE,68,9.2,9.2,60,0.00,CLR,,0.00,WeatherDisplay:10.37,2013-01-10 22:11:00,
2013-01-10 17:16:00,52.7,39.2,30.49,ENE,68,11.5,11.5,60,0.00,CLR,,0.00,WeatherDisplay:10.37,2013-01-10 22:16:00,
2013-01-10 17:21:00,52.5,39.0,30.49,ENE,68,9.2,9.2,60,0.00,CLR,,0.00,WeatherDisplay:10.37,2013-01-10 22:21:00,
2013-01-10 17:26:00,52.2,38.7,30.49,ESE,112,9.2,9.2,60,0.00,CLR,,0.00,WeatherDisplay:10.37,2013-01-10 22:26:00,
2013-01-10 17:31:00,52.2,38.7,30.49,NNE,22,11.5,11.5,60,0.00,CLR,,0.00,WeatherDisplay:10.37,2013-01-10 22:31:00,
2013-01-10 17:36:00,52.0,38.5,30.49,ENE,68,7.9,7.9,60,0.00,CLR,,0.00,WeatherDisplay:10.37,2013-01-10 22:36:00,
2013-01-10 17:41:00,51.8,38.3,30.49,NE,45,9.2,9.2,60,0.00,CLR,,0.00,WeatherDisplay:10.37,2013-01-10 22:41:00,
2013-01-10 17:46:00,51.6,38.6,30.49,ENE,68,7.1,7.1,61,0.00,CLR,,0.00,WeatherDisplay:10.37,2013-01-10 22:46:00,
2013-01-10 17:51:00,51.4,38.4,30.49,NNE,22,9.2,9.2,61,0.00,CLR,,0.00,WeatherDisplay:10.37,2013-01-10 22:51:00,
2013-01-10 17:56:00,51.4,38.4,30.49,NE,45,8.1,8.1,61,0.00,CLR,,0.00,WeatherDisplay:10.37,2013-01-10 22:56:00,
2013-01-10 18:02:00,51.3,38.3,30.49,NE,45,9.2,9.2,61,0.00,CLR,,0.00,WeatherDisplay:10.37,2013-01-10 23:02:00,
2013-01-10 18:07:00,51.1,37.7,30.49,ENE,68,9.2,9.2,60,0.00,CLR,,0.00,WeatherDisplay:10.37,2013-01-10 23:07:00,
2013-01-10 18:12:00,51.1,37.3,30.49,NE,45,9.2,9.2,59,0.00,CLR,,0.00,WeatherDisplay:10.37,2013-01-10 23:12:00,
2013-01-10 18:17:00,50.9,37.1,30.48,East,90,6.9,6.9,59,0.00,CLR,,0.00,WeatherDisplay:10.37,2013-01-10 23:17:00,
2013-01-10 18:22:00,50.7,36.9,30.48,NNE,22,5.8,5.8,59,0.00,CLR,,0.00,WeatherDisplay:10.37,2013-01-10 23:22:00,
2013-01-10 18:28:00,50.5,36.7,30.49,ENE,68,9.2,9.2,59,0.00,CLR,,0.00,WeatherDisplay:10.37,2013-01-10 23:28:00,
2013-01-10 18:33:00,50.5,36.7,30.49,ENE,68,6.9,6.9,59,0.00,CLR,,0.00,WeatherDisplay:10.37,2013-01-10 23:33:00,
2013-01-10 18:38:00,50.4,37.0,30.49,East,90,8.1,8.1,60,0.00,CLR,,0.00,WeatherDisplay:10.37,2013-01-10 23:38:00,
2013-01-10 18:43:00,50.0,36.7,30.49,NE,45,6.9,6.9,60,0.00,CLR,,0.00,WeatherDisplay:10.37,2013-01-10 23:43:00,
2013-01-10 18:48:00,50.0,37.1,30.49,East,90,8.1,8.1,61,0.00,CLR,,0.00,WeatherDisplay:10.37,2013-01-10 23:48:00,
2013-01-10 18:53:00,49.8,36.9,30.49,East,90,12.7,12.7,61,0.00,CLR,,0.00,WeatherDisplay:10.37,2013-01-10 23:53:00,
2013-01-10 18:58:00,49.8,36.9,30.49,ESE,112,8.1,8.1,61,0.00,CLR,,0.00,WeatherDisplay:10.37,2013-01-10 23:58:00,
2013-01-10 19:03:00,49.6,36.7,30.49,NE,45,11.5,11.5,61,0.00,CLR,,0.00,WeatherDisplay:10.37,2013-01-11 00:03:00,
2013-01-10 19:08:00,49.5,36.6,30.49,ENE,68,8.1,8.1,61,0.00,CLR,,0.00,WeatherDisplay:10.37,2013-01-11 00:08:00,
2013-01-10 19:14:00,49.3,36.8,30.48,ESE,112,9.2,9.2,62,0.00,CLR,,0.00,WeatherDisplay:10.37,2013-01-11 00:14:00,
2013-01-10 19:19:00,49.3,36.8,30.48,ENE,68,10.4,10.4,62,0.00,CLR,,0.00,WeatherDisplay:10.37,2013-01-11 00:19:00,
2013-01-10 19:24:00,49.3,36.8,30.48,East,90,11.5,11.5,62,0.00,CLR,,0.00,WeatherDisplay:10.37,2013-01-11 00:24:00,
2013-01-10 19:29:00,49.3,37.2,30.48,ENE,68,11.5,11.5,63,0.00,CLR,,0.00,WeatherDisplay:10.37,2013-01-11 00:29:00,
2013-01-10 19:34:00,49.3,37.2,30.48,ENE,68,9.2,9.2,63,0.00,CLR,,0.00,WeatherDisplay:10.37,2013-01-11 00:34:00,
2013-01-10 19:39:00,49.3,37.6,30.48,ENE,68,9.2,9.2,64,0.00,CLR,,0.00,WeatherDisplay:10.37,2013-01-11 00:39:00,
2013-01-10 19:44:00,48.9,37.3,30.48,ENE,68,5.8,5.8,64,0.00,CLR,,0.00,WeatherDisplay:10.37,2013-01-11 00:44:00,
2013-01-10 19:49:00,49.1,37.4,30.48,ENE,68,12.7,12.7,64,0.00,CLR,,0.00,WeatherDisplay:10.37,2013-01-11 00:49:00,
2013-01-10 19:54:00,49.1,37.4,30.48,NE,45,8.6,8.6,64,0.00,CLR,,0.00,WeatherDisplay:10.37,2013-01-11 00:54:00,
2013-01-10 19:59:00,48.9,37.3,30.48,ENE,59,7.0,14.0,64,0.00,CLR,,0.00,WeatherDisplay:10.37,2013-01-11 00:59:00,
2013-01-10 20:04:00,48.9,37.3,30.48,ENE,72,9.0,15.0,64,0.00,CLR,,0.00,WeatherDisplay:10.37,2013-01-11 01:04:00,
2013-01-10 20:09:00,48.7,37.1,30.48,ENE,72,10.0,12.0,64,0.00,CLR,,0.00,WeatherDisplay:10.37,2013-01-11 01:09:00,
2013-01-10 20:14:00,48.7,37.1,30.48,East,79,8.0,15.0,64,0.00,CLR,,0.00,WeatherDisplay:10.37,2013-01-11 01:14:00,
2013-01-10 20:19:00,48.7,37.5,30.48,NE,45,11.5,11.5,65,0.00,CLR,,0.00,WeatherDisplay:10.37,2013-01-11 01:19:00,
2013-01-10 20:24:00,48.6,37.4,30.48,ENE,70,9.0,13.0,65,0.00,CLR,,0.00,WeatherDisplay:10.37,2013-01-11 01:24:00,
2013-01-10 20:29:00,48.6,37.4,30.48,ENE,72,7.0,7.0,65,0.00,CLR,,0.00,WeatherDisplay:10.37,2013-01-11 01:29:00,
2013-01-10 20:34:00,48.4,36.4,30.48,ENE,65,7.0,9.0,63,0.00,CLR,,0.00,WeatherDisplay:10.37,2013-01-11 01:34:00,
2013-01-10 20:39:00,48.2,35.8,30.48,NE,55,5.0,12.0,62,0.00,CLR,,0.00,WeatherDisplay:10.37,2013-01-11 01:39:00,
2013-01-10 20:44:00,48.2,35.8,30.48,ENE,68,8.0,12.0,62,0.00,CLR,,0.00,WeatherDisplay:10.37,2013-01-11 01:44:00,
2013-01-10 20:49:00,48.2,35.8,30.48,ENE,66,7.0,12.0,62,0.00,CLR,,0.00,WeatherDisplay:10.37,2013-01-11 01:49:00,
2013-01-10 20:54:00,48.0,35.6,30.49,ENE,70,7.0,9.0,62,0.00,CLR,,0.00,WeatherDisplay:10.37,2013-01-11 01:54:00,
2013-01-10 20:59:00,47.8,35.4,30.49,ENE,72,8.0,10.0,62,0.00,CLR,,0.00,WeatherDisplay:10.37,2013-01-11 01:59:00,
2013-01-10 21:04:00,47.7,35.7,30.48,ENE,59,6.0,12.0,63,0.00,CLR,,0.00,WeatherDisplay:10.37,2013-01-11 02:04:00,
2013-01-10 21:09:00,47.7,35.7,30.48,ENE,64,7.0,9.0,63,0.00,CLR,,0.00,WeatherDisplay:10.37,2013-01-11 02:09:00,
2013-01-10 21:14:00,47.7,36.1,30.48,ENE,77,9.0,12.0,64,0.00,CLR,,0.00,WeatherDisplay:10.37,2013-01-11 02:14:00,
2013-01-10 21:19:00,47.7,36.1,30.48,ENE,77,7.0,9.0,64,0.00,CLR,,0.00,WeatherDisplay:10.37,2013-01-11 02:19:00,
2013-01-10 21:24:00,47.5,35.9,30.48,ENE,69,6.0,13.0,64,0.00,CLR,,0.00,WeatherDisplay:10.37,2013-01-11 02:24:00,
2013-01-10 21:29:00,47.3,35.8,30.49,ENE,68,7.0,10.0,64,0.00,CLR,,0.00,WeatherDisplay:10.37,2013-01-11 02:29:00,
2013-01-10 21:34:00,47.3,35.7,30.49,East,84,10.0,15.0,64,0.00,CLR,,0.00,WeatherDisplay:10.37,2013-01-11 02:34:00,
2013-01-10 21:39:00,47.3,36.1,30.47,ENE,72,7.0,10.0,65,0.00,CLR,,0.00,WeatherDisplay:10.37,2013-01-11 02:39:00,
2013-01-10 21:44:00,47.1,35.9,30.47,ENE,63,6.0,17.0,65,0.00,CLR,,0.00,WeatherDisplay:10.37,2013-01-11 02:44:00,
2013-01-10 21:49:00,47.1,35.9,30.47,ENE,73,8.0,12.0,65,0.00,CLR,,0.00,WeatherDisplay:10.37,2013-01-11 02:49:00,
2013-01-10 21:54:00,47.1,36.3,30.47,East,86,6.0,10.0,66,0.00,CLR,,0.00,WeatherDisplay:10.37,2013-01-11 02:54:00,
2013-01-10 21:59:00,47.1,36.7,30.47,ENE,78,9.0,14.0,67,0.00,CLR,,0.00,WeatherDisplay:10.37,2013-01-11 02:59:00,
2013-01-10 22:04:00,47.1,36.7,30.46,ENE,67,9.0,14.0,67,0.00,CLR,,0.00,WeatherDisplay:10.37,2013-01-11 03:04:00,
2013-01-10 22:09:00,47.1,37.1,30.46,ENE,76,7.0,21.0,68,0.00,CLR,,0.00,WeatherDisplay:10.37,2013-01-11 03:09:00,
2013-01-10 22:14:00,46.9,37.3,30.46,ENE,71,8.0,10.0,69,0.00,CLR,,0.00,WeatherDisplay:10.37,2013-01-11 03:14:00,
2013-01-10 22:19:00,46.9,37.3,30.46,ENE,68,11.5,11.5,69,0.00,CLR,,0.00,WeatherDisplay:10.37,2013-01-11 03:19:00,
2013-01-10 22:25:00,46.9,37.3,30.47,ENE,68,11.5,11.5,69,0.00,CLR,,0.00,WeatherDisplay:10.37,2013-01-11 03:25:00,
2013-01-10 22:30:00,46.9,37.3,30.47,East,90,8.1,8.1,69,0.00,CLR,,0.00,WeatherDisplay:10.37,2013-01-11 03:30:00,
2013-01-10 22:35:00,46.9,37.6,30.47,NE,45,15.0,15.0,70,0.00,CLR,,0.00,WeatherDisplay:10.37,2013-01-11 03:35:00,
2013-01-10 22:40:00,46.8,37.5,30.47,NNE,22,9.2,9.2,70,0.00,CLR,,0.00,WeatherDisplay:10.37,2013-01-11 03:40:00,
2013-01-10 22:45:00,46.8,37.5,30.47,NE,45,11.5,11.5,70,0.00,CLR,,0.00,WeatherDisplay:10.37,2013-01-11 03:45:00,
2013-01-10 22:50:00,46.8,37.9,30.46,East,90,6.9,6.9,71,0.00,CLR,,0.00,WeatherDisplay:10.37,2013-01-11 03:50:00,
2013-01-10 22:55:00,46.8,37.9,30.46,ENE,68,14.8,14.8,71,0.00,CLR,,0.00,WeatherDisplay:10.37,2013-01-11 03:55:00,
2013-01-10 23:00:00,46.9,38.3,30.46,ENE,68,8.6,10.2,72,0.00,CLR,,0.00,WeatherDisplay:10.37,2013-01-11 04:00:00,
2013-01-10 23:05:00,46.9,38.3,30.46,North,360,10.4,10.4,72,0.00,CLR,,0.00,WeatherDisplay:10.37,2013-01-11 04:05:00,
2013-01-10 23:10:00,46.9,38.7,30.46,SE,135,11.8,11.8,73,0.00,CLR,,0.00,WeatherDisplay:10.37,2013-01-11 04:10:00,
2013-01-10 23:16:00,46.9,38.7,30.46,NE,45,10.2,10.2,73,0.00,CLR,,0.00,WeatherDisplay:10.37,2013-01-11 04:16:00,
2013-01-10 23:21:00,46.9,38.7,30.46,ESE,112,9.2,9.2,73,0.00,CLR,,0.00,WeatherDisplay:10.37,2013-01-11 04:21:00,
2013-01-10 23:26:00,46.9,39.0,30.46,NE,45,10.4,10.4,74,0.00,CLR,,0.00,WeatherDisplay:10.37,2013-01-11 04:26:00,
2013-01-10 23:32:00,46.9,39.0,30.46,NE,45,11.7,11.7,74,0.00,CLR,,0.00,WeatherDisplay:10.37,2013-01-11 04:32:00,
2013-01-10 23:37:00,47.1,39.2,30.46,NE,45,11.7,11.7,74,0.00,CLR,,0.00,WeatherDisplay:10.37,2013-01-11 04:37:00,
2013-01-10 23:42:00,47.3,39.4,30.46,ESE,112,10.4,10.4,74,0.00,CLR,,0.00,WeatherDisplay:10.37,2013-01-11 04:42:00,
2013-01-10 23:47:00,47.3,39.4,30.44,NNE,22,4.2,-999.0,74,-99.99,,,0.00,Acu-Link.com,2013-01-11 04:47:00,
2013-01-10 23:52:00,47.3,39.8,30.45,ENE,68,6.9,6.9,75,0.00,CLR,,0.00,WeatherDisplay:10.37,2013-01-11 04:52:00,
2013-01-10 23:57:00,47.3,39.8,30.45,ENE,68,6.3,6.3,75,0.00,CLR,,0.00,WeatherDisplay:10.37,2013-01-11 04:57:00,